Location: Lavington
(51.2833°N, 1.9833°W)
Time: 01:54:39
(UTC+00:00)

Cosmos 1900 - Pass Details

Date: 01 June 2020
Orbit: 684 x 738 km, 66.1° (Epoch: 06 July)

Event Time Altitude Azimuth Distance (km) Brightness Sun altitude
Rises 21:29:06 0° 320° (NW) 3,121 10.1 -8.8°
Reaches altitude 10° 21:31:26 10° 319° (NW) 2,206 8.6 -9.1°
Maximum altitude 21:36:28 79° 234° (SW) 742 4.4 -9.5°
Enters shadow 21:41:01 13° 148° (SSE) 2,020 6.0 -9.9°
